Weather History for Orlando International, FL

Change the Weather History Date:

Sunday, August 4, 2013

  Actual Average Record
Temperature  
Mean Temperature 83 °F 83 °F  
Max Temperature 91 °F 92 °F 98 °F (1935)
Min Temperature 75 °F 74 °F 66 °F (1938)
Degree Days  
Heating Degree Days 0 0  
Month to date heating degree days 0 0  
Since 1 June heating degree days 0 0  
Since 1 July heating degree days 0 0  
Cooling Degree Days 18 18  
Month to date cooling degree days 75 72  
Year to date cooling degree days 1985 1912  
Since 1 June cooling degree days 1113 1111  
Growing Degree Days 33 (Base 50)    
Moisture  
Dew Point 75 °F    
Average Humidity 80    
Maximum Humidity 100    
Minimum Humidity 59    
Precipitation  
Precipitation 0.08 in 0.24 in 2.39 in (1900)
Month to date precipitation 0.10 0.96  
Year to date precipitation 29.64 30.44  
Sea Level Pressure  
Sea Level Pressure 30.05 in    
Wind  
Wind Speed 6 mph (SW)    
Max Wind Speed 23 mph    
Max Gust Speed 28 mph    
Visibility 9 miles    
Events Rain , Thunderstorm    
T = Trace of Precipitation, MM = Missing Value Source: NWS Daily Summary

Daily Weather History Graph

Daily Weather History Graph

Search for Another Location

Airport:

Trip Planner

Search our weather history database for the weather conditions in past years. The results will help you decide how hot, cold, wet, or windy it might be!

Date:

Astronomy

Aug. 04, 2013 Rise Set
Actual Time 6:48 AM EDT 8:13 PM EDT
Civil Twilight 6:23 AM EDT 8:38 PM EDT
Nautical Twilight 5:53 AM EDT 9:08 PM EDT
Astronomical Twilight 5:22 AM EDT 9:39 PM EDT
Moon 4:50 AM EDT (8/4) 6:35 PM EDT (8/4)
Length of Visible Light 14h 14m
Length of Day
13h 24m
Waning Crescent, 5% of the Moon is Illuminated
Aug 4
Waning Crescent
Aug 6
New
Aug 14
First Quarter
Aug 20
Full
Aug 28
Last Quarter

Hourly Weather History & Observations

Time (EDT) Temp. Heat Index Dew Point Humidity Pressure Visibility Wind Dir Wind Speed Gust Speed Precip Events Conditions
12:53 AM 75.9 °F - 73.9 °F 94% 30.09 in 10.0 mi SSW 6.9 mph - N/A   Scattered Clouds
1:53 AM 75.0 °F - 73.9 °F 96% 30.08 in 10.0 mi South 5.8 mph - N/A   Scattered Clouds
2:53 AM 75.9 °F - 73.9 °F 94% 30.06 in 10.0 mi SW 4.6 mph - N/A   Partly Cloudy
3:53 AM 75.9 °F - 75.0 °F 97% 30.06 in 10.0 mi SSW 5.8 mph - N/A   Scattered Clouds
4:53 AM 75.9 °F - 75.0 °F 97% 30.05 in 10.0 mi SSW 3.5 mph - N/A   Partly Cloudy
5:53 AM 75.9 °F - 75.0 °F 97% 30.05 in 10.0 mi SSW 6.9 mph - N/A   Clear
6:53 AM 75.9 °F - 75.0 °F 97% 30.07 in 9.0 mi SW 3.5 mph - N/A   Scattered Clouds
7:53 AM 77.0 °F - 75.9 °F 96% 30.08 in 10.0 mi SW 4.6 mph - N/A   Partly Cloudy
8:53 AM 81.0 °F 87.9 °F 77.0 °F 88% 30.09 in 10.0 mi SSW 5.8 mph - N/A   Scattered Clouds
9:53 AM 84.9 °F 94.1 °F 75.9 °F 74% 30.08 in 10.0 mi WSW 6.9 mph - N/A   Scattered Clouds
10:53 AM 87.1 °F 97.3 °F 75.9 °F 69% 30.08 in 10.0 mi West 9.2 mph - N/A   Mostly Cloudy
11:02 AM 89.6 °F 99.8 °F 75.2 °F 62% 30.09 in 10.0 mi West 5.8 mph - N/A   Mostly Cloudy
11:53 AM 89.1 °F 99.1 °F 75.0 °F 63% 30.07 in 10.0 mi SW 6.9 mph - N/A   Mostly Cloudy
12:53 PM 90.0 °F 99.0 °F 73.9 °F 59% 30.05 in 10.0 mi SW 5.8 mph - N/A   Mostly Cloudy
1:38 PM 78.8 °F - 73.4 °F 83% 30.06 in 3.0 mi WNW 19.6 mph - 0.03 in Rain Heavy Rain
1:53 PM 78.1 °F - 73.9 °F 87% 30.06 in 5.0 mi NW 11.5 mph - 0.08 in Rain Light Rain
2:53 PM 84.0 °F 93.7 °F 77.0 °F 79% 30.03 in 10.0 mi WSW 5.8 mph - 0.00 in   Mostly Cloudy
3:53 PM 84.0 °F 91.9 °F 75.0 °F 74% 30.01 in 10.0 mi West 8.1 mph - N/A   Mostly Cloudy
4:53 PM 84.0 °F 92.6 °F 75.9 °F 76% 30.01 in 10.0 mi Variable 3.5 mph - N/A   Overcast
5:53 PM 84.9 °F 93.3 °F 75.0 °F 72% 30.00 in 10.0 mi SW 6.9 mph - N/A   Overcast
6:18 PM 84.2 °F 92.3 °F 75.2 °F 74% 30.00 in 10.0 mi WSW 9.2 mph - N/A Thunderstorm Thunderstorm
6:46 PM 84.2 °F 92.3 °F 75.2 °F 74% 30.01 in 10.0 mi West 5.8 mph - N/A   Overcast
6:53 PM 84.0 °F 91.9 °F 75.0 °F 74% 30.01 in 10.0 mi West 5.8 mph - N/A   Overcast
7:53 PM 82.9 °F 90.2 °F 75.0 °F 77% 30.01 in 10.0 mi SW 8.1 mph - N/A   Overcast
8:53 PM 82.0 °F 89.4 °F 75.9 °F 82% 30.02 in 10.0 mi SW 3.5 mph - N/A   Mostly Cloudy
9:53 PM 81.0 °F 87.9 °F 77.0 °F 88% 30.02 in 10.0 mi SW 4.6 mph - N/A   Mostly Cloudy
10:53 PM 81.0 °F 87.9 °F 77.0 °F 88% 30.04 in 10.0 mi SW 5.8 mph - N/A   Mostly Cloudy
11:53 PM 80.1 °F 85.8 °F 77.0 °F 90% 30.03 in 10.0 mi WSW 4.6 mph - N/A   Mostly Cloudy